Regional Weather Roundup
Issued by NWS Cleveland, OH

Home | Current Version | Previous Version | Text Only | Print | Product List | Glossary Off
Versions: 1 2 3 4 5 6 7 8 9 10 11 12 13 14 15 16 17 18 19 20 21 22 23 24 25 26 27 28 29 30 31 32 33 34 35 36 37 38 39 40 41 42 43 44 45 46 47 48 49 50

000
ASUS41 KCLE 230010
RWRCLE
OHIO REGIONAL WEATHER ROUNDUP
NATIONAL WEATHER SERVICE WILMINGTON, OH
800 PM EDT MON MAY 22 2017

NOTE: "FAIR" INDICATES FEW OR NO CLOUDS BELOW 12,000 FEET WITH NO
SIGNIFICANT WEATHER AND/OR OBSTRUCTIONS TO VISIBILITY.

OHZ001>008-015>018-024>027-034-035-043-044-230100-
   NORTHWEST OHIO

CITY           SKY/WX    TMP DP  RH WIND       PRES   REMARKS
DEFIANCE       FAIR      66  45  46 SW10      29.99R
FINDLAY        FAIR      68  47  46 SW7       29.98F
TOLEDO EXPRESS FAIR      68  45  43 W9        29.98S
TOLEDO EXEC    FAIR      69  46  43 SW12      29.99S
LIMA           FAIR      67  47  48 SW8       30.01S
$$

OHZ009>014-019>023-028>033-038-089-230100-
   NORTHEAST OHIO

CITY           SKY/WX    TMP DP  RH WIND       PRES   REMARKS
CLE-HOPKINS    MOCLDY    67  46  47 SW9       30.01F
CLE-LAKEFRONT  FAIR      62  50  64 CALM      29.99S
CUY CO. ARPT   PTCLDY    66  46  48 W7        30.00F
LORAIN-ELYRIA  FAIR      65  46  50 W8        30.01S
ASHTABULA      FAIR      63  41  44 W8        30.01F
AKRON-CANTON   MOCLDY    64  45  49 W5        30.02F
WOOSTER        FAIR      64  47  53 NW7       30.02F
MANSFIELD      FAIR      65  46  50 VRB3      30.02S
YOUNGSTOWN     MOCLDY    62  45  53 SW6       30.02S
$$

OHZ042-051>053-060>062-070>072-077>081-230100-
  SOUTHWEST OHIO

CITY           SKY/WX    TMP DP  RH WIND       PRES   REMARKS
CINC-COVINGTON MOCLDY    65  46  50 SE6       30.03S
CINC-LUNKEN    FAIR      65  50  58 CALM      30.03F
HAMILTON       FAIR      69  48  47 VRB3      30.04R
DAYTON         FAIR      67  45  45 SW3       30.03R
WRIGHT-PAT AFB FAIR      68  46  44 SW3       30.02S
DAYTON GENERAL FAIR      67  44  43 CALM      30.03R
WILMINGTON     FAIR      66  45  46 CALM      30.04R
$$

OHZ036-037-039>041-045>050-054>059-063>069-073>076-082>088-230100-
  CENTRAL AND SOUTHEAST OHIO

CITY           SKY/WX    TMP DP  RH WIND       PRES   REMARKS
COLUMBUS       FAIR      67  45  45 S5        30.02S
OSU AIRPORT    FAIR      67  47  48 CALM      30.02S
BOLTON FIELD   FAIR      64  49  56 S5        30.03S
RICKENBACK AFB FAIR      65  45  47 CALM      30.02F
NEWARK         FAIR      66  44  45 CALM      30.03R
MARION         FAIR      67  44  43 W3        30.01F
LANCASTER      FAIR      67  46  47 CALM      30.04S
ZANESVILLE     FAIR      64  46  52 N3        30.04S
NEW PHILLY     FAIR      64  47  53 CALM      30.03F
$$




USA.gov is the U.S. government's official web portal to all federal, state and local government web resources and services.